This is the latest recevied weather packets stored in our database for station/object W0VI. If no packets are shown the sender has not sent any weather packets the latest 10 day(s).
| Time | Temp. | Humidity | Pressure | Rain* | Wind** | Luminosity | Snow |
|---|---|---|---|---|---|---|---|
| 1778119776 | 5.56° C | 54% | 1015.1 hPa | 0 mm | - | 0 W/m² | - |
| 1778119473 | 5.56° C | 53% | 1015.5 hPa | 0 mm | - | 0 W/m² | - |
| 1778119169 | 5.56° C | 53% | 1015.3 hPa | 0 mm | - | 0 W/m² | - |
| 1778118867 | 5.56° C | 53% | 1015.1 hPa | 0 mm | - | 0 W/m² | - |
| 1778118564 | 5.56° C | 52% | 1015 hPa | 0 mm | - | 0 W/m² | - |
| 1778118260 | 5.56° C | 52% | 1015 hPa | 0 mm | - | 0 W/m² | - |
| 1778117957 | 5.56° C | 52% | 1015 hPa | 0 mm | - | 0 W/m² | - |
| 1778117654 | 5.56° C | 52% | 1015 hPa | 0 mm | - | 0 W/m² | - |
| 1778117352 | 5.56° C | 51% | 1015 hPa | 0 mm | - | 0 W/m² | - |
| 1778117048 | 5.56° C | 51% | 1015 hPa | 0 mm | - | 2 W/m² | - |
| 1778116739 | 5.56° C | 50% | 1015 hPa | 0 mm | - | 3 W/m² | - |
| 1778116435 | 6.11° C | 49% | 1015.1 hPa | 0 mm | - | 7 W/m² | - |
| 1778116129 | 6.11° C | 48% | 1015.1 hPa | 0 mm | - | 10 W/m² | - |
| 1778115820 | 6.11° C | 49% | 1015.1 hPa | 0 mm | - | 12 W/m² | - |
| 1778115517 | 6.11° C | 49% | 1015.1 hPa | 0 mm | - | 15 W/m² | - |
| 1778115214 | 6.67° C | 49% | 1015.1 hPa | 0 mm | - | 21 W/m² | - |
| 1778114911 | 6.67° C | 49% | 1015.2 hPa | 0 mm | - | 24 W/m² | - |
| 1778114608 | 6.67° C | 49% | 1015.2 hPa | 0 mm | - | 33 W/m² | - |
| 1778114305 | 6.67° C | 49% | 1015.3 hPa | 0 mm | - | 32 W/m² | - |
| 1778114000 | 6.67° C | 49% | 1015.1 hPa | 0 mm | - | 28 W/m² | - |
| 1778113695 | 6.67° C | 49% | 1015.4 hPa | 0 mm | - | 26 W/m² | - |
| 1778113391 | 6.67° C | 49% | 1015.3 hPa | 0 mm | - | 29 W/m² | - |
| 1778113084 | 6.67° C | 49% | 1015.3 hPa | 0 mm | - | 35 W/m² | - |
| 1778112780 | 6.67° C | 49% | 1015.3 hPa | 0 mm | - | 39 W/m² | - |
| 1778112471 | 6.67° C | 49% | 1015.1 hPa | 0 mm | - | 40 W/m² | - |
* Rain latest hour (hover to see other rain measurements)
** Current wind speed in m/s (hover to see current wind gust speed)